Preview of NWS' New Version of Forecast
This preview is not operational and should not be used for support decisions.

Regional Weather Roundup (RWR)

Issued by National Weather Service (NWS)

                            
000
ASUS45 KBOU 202210
RWRCO 

WEATHER ROUNDUP FOR COLORADO
NATIONAL WEATHER SERVICE DENVER/BOULDER CO
400 PM MDT SAT APR 20 2019

NOTE: "FAIR" INDICATES FEW OR NO CLOUDS BELOW 12000 FEET WITH NO
SIGNIFICANT WEATHER AND/OR OBSTRUCTIONS TO VISIBILITY.

COZ001>005-013-030-031-202300-
...NORTHWEST COLORADO...
  
CITY           SKY/WX    TMP DP  RH WIND       PRES   REMARKS
CRAIG          FAIR      68  23  18 SW23G39   29.86R                  
HAYDEN         FAIR      65  24  21 SW24G32   29.88R                  
MEEKER         PTSUNNY   62  25  24 SW17G30   29.92R                  
RANGELY        FAIR      70  27  20 SW23G32   29.81F                  
RABBIT EARS PA CLOUDY    46  19  34 SW7G18    30.09F                  
STEAMBOAT SPGS CLOUDY    64  24  22 S14G20    29.88S                  
WALDEN         FAIR      61  12  15 SW20G29   29.95F                  
$$

COZ006>008-011-202300-
...WEST CENTRAL VALLEYS...
  
CITY           SKY/WX    TMP DP  RH WIND       PRES   REMARKS
GRAND JUNCTION FAIR      71  27  19 N6        29.82F                  
MONTROSE       FAIR      70  21  15 SW12      29.89F                  
EAGLE          CLOUDY    62  25  24 W16G40    29.96R                  
RIFLE          FAIR      66  30  26 S22G33    29.93R                  
DELTA          FAIR      73  19  13 E3        29.84F                  
NUCLA          PTSUNNY   64  27  24 S13G21    29.94S                  
$$

COZ017>023-064>068-202300-
...SOUTHWEST COLORADO...
  
CITY           SKY/WX    TMP DP  RH WIND       PRES   REMARKS
DURANGO        LGT RAIN  61  25  25 W10G47    29.97R                  
CORTEZ         FAIR      66  29  24 S9        29.92F                  
PAGOSA SPRINGS PTSUNNY   65  19  17 SW15G22   30.00F                  
TELLURIDE      LGT RAIN  45  32  61 SE8G20    30.14R                  
WOLF CREEK PAS CLOUDY    37  18  44 S23G39    30.23F                  
$$

COZ009-010-012-014-032>034-037-058>063-202300-
...CENTRAL COLORADO...
  
CITY           SKY/WX    TMP DP  RH WIND       PRES   REMARKS
ASPEN          CLOUDY    58  25  28 NW10G18   29.98R                  
BUENA VISTA    PTSUNNY   65  10  11 W16G23    29.95F                  
COPPER MTN     PTSUNNY   46   5  18 S7        30.18F                  
BERTHOUD PASS  PTSUNNY   36  28  75 W10G21    30.20F                  
COTTONWOOD PAS FAIR      54  12  19 W22G32    30.08F                  
GUNNISON       PTSUNNY   57  25  29 SE12G32   30.00S                  
GRANBY         FAIR      64  13  14 SW5       29.95S                  
KREMMLING      FAIR      68  25  19 W25G35    29.92R                  
LEADVILLE      FAIR      50  16  25 SW15G24   30.05F                  
MONARCH PASS   CLOUDY    41  14  33 W29G37    30.29F                  
SALIDA         CLOUDY    67  11  11 SW18G29   30.00F                  
SUNLIGHT       CLOUDY    37  23  56 SW9G21    30.18S                  
WILKERSON PASS CLOUDY    46   9  21 SW9       30.17F                  
$$

COZ069>075-202300-
...SAN LUIS VALLEY/SANGRE DE CRISTO MOUNTAINS...
  
CITY           SKY/WX    TMP DP  RH WIND       PRES   REMARKS
ALAMOSA        FAIR      71   6   8 S28G40    29.95F                  
DEL NORTE      FAIR      63  21  19 SW18G30   30.00F                  
LA VETA PASS   NOT AVBL                                               
SAGUACHE       FAIR      64  19  17 W13G25    29.98S                  
$$

COZ035-036-038>040-202300-
...NORTHERN COLORADO FRONT RANGE...
  
CITY           SKY/WX    TMP DP  RH WIND       PRES   REMARKS
DENVER INTL AP PTSUNNY   80  18  10 SE16      29.76F                  
AURORA         MOSUNNY   76  20  12 SE13G18   29.77F                  
FRONT RANGE AP PTSUNNY   81  18   9 E6        29.78F                  
ERIE MUNI ARPT FAIR      78  14   9 NE6       29.79F                  
BOULDER MUN AP FAIR      73  27  17 N7        29.76F                  
CENTENNIAL     PTSUNNY   75  22  13 S17G32    29.78F                  
BROOMFIELD     PTSUNNY   77  19  11 SE15G21   29.77F                  
FORT COLLINS   FAIR      80  25  13 S12G18    29.75F                  
LONGMONT       FAIR      78  25  14 W13       29.77F                  
$$

COZ041-046-047-076>085-087-088-202300-
...PIKES PEAK/PALMER DIVIDE AND SOUTHERN FOOTHILLS...
  
CITY           SKY/WX    TMP DP  RH WIND       PRES   REMARKS
COLO. SPRINGS  PTSUNNY   75  14  10 S13G26    29.83F                  
A. F. ACADEMY  MOSUNNY   73   8   8 E10G17    29.82F                  
SCHRIEVER AFB  NOT AVBL                                               
CHEYENNE MTN   PTSUNNY   72  10   9 S15G28    29.83F                  
ELLICOTT         N/A    N/A N/A N/A W15       29.83F                  
FALCON         FAIR      72  11   9 SE15G24   29.88F                  
FORT CARSON    FAIR      79   9   7 S29G37    29.80F                  
LIMON          FAIR      79  14   8 N7        29.79F                  
MONUMENT HILL  FAIR      72  18  13 MISG      29.89F                  
CANON CITY     NOT AVBL                                               
WALSENBURG     NOT AVBL                                               
TRINIDAD       FAIR      80  19  10 S9        29.81F                  
$$

COZ042>045-048>051-090-091-202300-
...NORTHEAST COLORADO...
  
CITY           SKY/WX    TMP DP  RH WIND       PRES   REMARKS
GREELEY ARPT   FAIR      83  20   9 VRB6      29.73F                  
AKRON          FAIR      82  23  11 MISG      29.74F                  
BURLINGTON     FAIR      87  20   8 SW18      29.73F                  
WRAY           FAIR      88  27  11 S9        29.69F                  
YUMA           NOT AVBL                                               
STERLING       FAIR      82  25  12 CALM      29.70F                  
HOLYOKE        FAIR      88  23   9 SW10G16   29.70F                  
FORT MORGAN    NOT AVBL                                               
$$

COZ086-089-092>099-202300-
...SOUTHEAST COLORADO...
  
CITY           SKY/WX    TMP DP  RH WIND       PRES   REMARKS
PUEBLO         FAIR      83  19   9 VRB6      29.73F                  
LA JUNTA       FAIR      87  13   6 SW15G23   29.72F                  
LAMAR          FAIR      88  18   7 VRB6      29.70F                  
SPRINGFIELD      N/A     85  21   9 SW15G21   29.74F                  
$$